contact:dominique.lefevre@mio.osupytheas.fr, maurice.libes@osupytheas.fr, didier.mallarino@osupytheas.fr
Project:EMSO http://www.emso-fr.org/EMSO-France
Depth: 2436.0 m
Title:EMSO Ligure Ouest : Data MII capteur MICROCAT
DateTime_Computer,Latitude,Longitude,Temperature,Conductivity,Pressure,DateTime_Instrument
DateTime_Computer,Latitude,Longitude,degC,S m-1,dbar,DateTime_Instrument
2022-10-07T00:00:30Z,42.805,6.029,13.3077,4.60135,2470.544,2022-10-07T02:02:24Z
2022-10-07T00:03:33Z,42.805,6.029,13.3053,4.60150,2470.53,2022-10-07T02:05:27Z
2022-10-07T00:06:36Z,42.805,6.029,13.3044,4.60172,2470.52,2022-10-07T02:08:30Z
2022-10-07T00:09:39Z,42.805,6.029,13.3058,4.60094,2470.497,2022-10-07T02:11:34Z
2022-10-07T00:12:42Z,42.805,6.029,13.3053,4.60137,2470.53,2022-10-07T02:14:37Z
2022-10-07T00:15:45Z,42.805,6.029,13.3029,4.60117,2470.544,2022-10-07T02:17:40Z
2022-10-07T00:18:49Z,42.805,6.029,13.3028,4.60140,2470.567,2022-10-07T02:20:43Z
2022-10-07T00:21:52Z,42.805,6.029,13.3046,4.60109,2470.507,2022-10-07T02:23:46Z
2022-10-07T00:24:55Z,42.805,6.029,13.3056,4.60123,2470.507,2022-10-07T02:26:49Z
2022-10-07T00:27:58Z,42.805,6.029,13.3056,4.60127,2470.507,2022-10-07T02:29:52Z
2022-10-07T00:31:01Z,42.805,6.029,13.3077,4.60119,2470.483,2022-10-07T02:32:55Z
2022-10-07T00:34:04Z,42.805,6.029,13.3077,4.60119,2470.483,2022-10-07T02:35:58Z
2022-10-07T00:37:07Z,42.805,6.029,13.3077,4.60128,2470.507,2022-10-07T02:39:02Z
2022-10-07T00:40:10Z,42.805,6.029,13.3063,4.60101,2470.507,2022-10-07T02:42:05Z
2022-10-07T00:43:13Z,42.805,6.029,13.3047,4.60110,2470.52,2022-10-07T02:45:08Z
2022-10-07T00:46:17Z,42.805,6.029,13.3054,4.60132,2470.507,2022-10-07T02:48:11Z
2022-10-07T00:49:20Z,42.805,6.029,13.3036,4.60125,2470.53,2022-10-07T02:51:14Z
2022-10-07T00:52:23Z,42.805,6.029,13.3068,4.60124,2470.553,2022-10-07T02:54:17Z
2022-10-07T00:55:26Z,42.805,6.029,13.3082,4.60164,2470.52,2022-10-07T02:57:20Z
2022-10-07T00:58:29Z,42.805,6.029,13.3089,4.60119,2470.567,2022-10-07T03:00:23Z
2022-10-07T01:01:32Z,42.805,6.029,13.3086,4.60132,2470.52,2022-10-07T03:03:26Z
2022-10-07T01:04:35Z,42.805,6.029,13.3095,4.60121,2470.52,2022-10-07T03:06:30Z
2022-10-07T01:07:38Z,42.805,6.029,13.3052,4.60121,2470.567,2022-10-07T03:09:33Z
2022-10-07T01:10:41Z,42.805,6.029,13.3076,4.60107,2470.52,2022-10-07T03:12:36Z
2022-10-07T01:13:45Z,42.805,6.029,13.3074,4.60094,2470.53,2022-10-07T03:15:39Z
2022-10-07T01:16:48Z,42.805,6.029,13.3071,4.60111,2470.53,2022-10-07T03:18:42Z
2022-10-07T01:19:51Z,42.805,6.029,13.3073,4.60082,2470.507,2022-10-07T03:21:45Z
2022-10-07T01:22:54Z,42.805,6.029,13.3064,4.60107,2470.544,2022-10-07T03:24:48Z
2022-10-07T01:25:57Z,42.805,6.029,13.3072,4.60122,2470.507,2022-10-07T03:27:51Z
2022-10-07T01:29:00Z,42.805,6.029,13.3073,4.60121,2470.553,2022-10-07T03:30:55Z
2022-10-07T01:32:03Z,42.805,6.029,13.3073,4.60111,2470.558,2022-10-07T03:33:58Z
2022-10-07T01:35:06Z,42.805,6.029,13.3077,4.60104,2470.544,2022-10-07T03:37:01Z
2022-10-07T01:38:10Z,42.805,6.029,13.3069,4.60126,2470.53,2022-10-07T03:40:04Z
2022-10-07T01:41:13Z,42.805,6.029,13.3083,4.60119,2470.567,2022-10-07T03:43:07Z
2022-10-07T01:44:16Z,42.805,6.029,13.3091,4.60104,2470.507,2022-10-07T03:46:10Z
2022-10-07T01:47:19Z,42.805,6.029,13.3055,4.60112,2470.553,2022-10-07T03:49:13Z
2022-10-07T01:50:22Z,42.805,6.029,13.3038,4.60110,2470.53,2022-10-07T03:52:16Z
2022-10-07T01:53:25Z,42.805,6.029,13.3042,4.60125,2470.53,2022-10-07T03:55:19Z
2022-10-07T01:56:28Z,42.805,6.029,13.3048,4.60137,2470.567,2022-10-07T03:58:23Z
2022-10-07T01:59:31Z,42.805,6.029,13.3061,4.60108,2470.544,2022-10-07T04:01:26Z
2022-10-07T02:02:34Z,42.805,6.029,13.3059,4.60115,2470.553,2022-10-07T04:04:29Z
2022-10-07T02:05:38Z,42.805,6.029,13.3063,4.60120,2470.553,2022-10-07T04:07:32Z
2022-10-07T02:08:41Z,42.805,6.029,13.3058,4.60102,2470.544,2022-10-07T04:10:35Z
2022-10-07T02:11:44Z,42.805,6.029,13.3042,4.60096,2470.553,2022-10-07T04:13:38Z
2022-10-07T02:14:47Z,42.805,6.029,13.3029,4.60107,2470.567,2022-10-07T04:16:41Z
2022-10-07T02:17:50Z,42.805,6.029,13.3057,4.60114,2470.53,2022-10-07T04:19:44Z
2022-10-07T02:20:53Z,42.805,6.029,13.3047,4.60094,2470.53,2022-10-07T04:22:47Z
2022-10-07T02:23:56Z,42.805,6.029,13.3055,4.60082,2470.567,2022-10-07T04:25:51Z
2022-10-07T02:26:59Z,42.805,6.029,13.3062,4.60092,2470.567,2022-10-07T04:28:54Z
2022-10-07T02:30:02Z,42.805,6.029,13.3062,4.60128,2470.553,2022-10-07T04:31:57Z
2022-10-07T02:33:06Z,42.805,6.029,13.3076,4.60110,2470.6,2022-10-07T04:35:00Z
2022-10-07T02:36:09Z,42.805,6.029,13.3056,4.60142,2470.567,2022-10-07T04:38:03Z
2022-10-07T02:39:12Z,42.805,6.029,13.3063,4.60089,2470.591,2022-10-07T04:41:06Z
2022-10-07T02:42:15Z,42.805,6.029,13.3075,4.60100,2470.553,2022-10-07T04:44:09Z
2022-10-07T02:45:18Z,42.805,6.029,13.3067,4.60127,2470.53,2022-10-07T04:47:12Z
2022-10-07T02:48:21Z,42.805,6.029,13.3065,4.60114,2470.567,2022-10-07T04:50:16Z
2022-10-07T02:51:24Z,42.805,6.029,13.3061,4.60098,2470.567,2022-10-07T04:53:19Z
2022-10-07T02:54:27Z,42.805,6.029,13.3047,4.60107,2470.614,2022-10-07T04:56:22Z
2022-10-07T02:57:31Z,42.805,6.029,13.3047,4.60092,2470.553,2022-10-07T04:59:25Z
2022-10-07T03:00:34Z,42.805,6.029,13.3037,4.60108,2470.591,2022-10-07T05:02:28Z
2022-10-07T03:03:37Z,42.805,6.029,13.3036,4.60111,2470.577,2022-10-07T05:05:31Z
2022-10-07T03:06:40Z,42.805,6.029,13.3043,4.60098,2470.567,2022-10-07T05:08:34Z
2022-10-07T03:09:43Z,42.805,6.029,13.3065,4.60113,2470.577,2022-10-07T05:11:37Z
2022-10-07T03:12:46Z,42.805,6.029,13.3064,4.60085,2470.577,2022-10-07T05:14:40Z
2022-10-07T03:15:49Z,42.805,6.029,13.3049,4.60085,2470.591,2022-10-07T05:17:44Z
2022-10-07T03:18:52Z,42.805,6.029,13.3055,4.60099,2470.553,2022-10-07T05:20:47Z
2022-10-07T03:21:55Z,42.805,6.029,13.3048,4.60084,2470.591,2022-10-07T05:23:50Z
2022-10-07T03:24:59Z,42.805,6.029,13.3051,4.60088,2470.624,2022-10-07T05:26:53Z
2022-10-07T03:28:02Z,42.805,6.029,13.3069,4.60104,2470.577,2022-10-07T05:29:56Z
2022-10-07T03:31:05Z,42.805,6.029,13.3046,4.60106,2470.591,2022-10-07T05:32:59Z
2022-10-07T03:34:08Z,42.805,6.029,13.3049,4.60113,2470.637,2022-10-07T05:36:02Z
2022-10-07T03:37:11Z,42.805,6.029,13.3086,4.60100,2470.577,2022-10-07T05:39:05Z
2022-10-07T03:40:14Z,42.805,6.029,13.3082,4.60081,2470.637,2022-10-07T05:42:09Z
2022-10-07T03:43:17Z,42.805,6.029,13.3084,4.60077,2470.591,2022-10-07T05:45:12Z
2022-10-07T03:46:20Z,42.805,6.029,13.3069,4.60087,2470.624,2022-10-07T05:48:15Z
2022-10-07T03:49:24Z,42.805,6.029,13.3091,4.60085,2470.637,2022-10-07T05:51:18Z
2022-10-07T03:52:27Z,42.805,6.029,13.3064,4.60079,2470.624,2022-10-07T05:54:21Z
2022-10-07T03:55:30Z,42.805,6.029,13.3058,4.60112,2470.637,2022-10-07T05:57:24Z
2022-10-07T03:58:33Z,42.805,6.029,13.3058,4.60093,2470.6,2022-10-07T06:00:27Z
2022-10-07T04:01:36Z,42.805,6.029,13.3052,4.60077,2470.591,2022-10-07T06:03:30Z
2022-10-07T04:04:39Z,42.805,6.029,13.3057,4.60076,2470.614,2022-10-07T06:06:33Z
2022-10-07T04:07:42Z,42.805,6.029,13.3084,4.60090,2470.614,2022-10-07T06:09:37Z
2022-10-07T04:10:45Z,42.805,6.029,13.3048,4.60116,2470.614,2022-10-07T06:12:40Z
2022-10-07T04:13:48Z,42.805,6.029,13.3046,4.60094,2470.591,2022-10-07T06:15:43Z
2022-10-07T04:16:52Z,42.805,6.029,13.3049,4.60079,2470.614,2022-10-07T06:18:46Z
2022-10-07T04:19:55Z,42.805,6.029,13.3048,4.60081,2470.624,2022-10-07T06:21:49Z
2022-10-07T04:22:58Z,42.805,6.029,13.3050,4.60114,2470.624,2022-10-07T06:24:52Z
2022-10-07T04:26:01Z,42.805,6.029,13.3046,4.60102,2470.661,2022-10-07T06:27:55Z
2022-10-07T04:29:04Z,42.805,6.029,13.3054,4.60119,2470.624,2022-10-07T06:30:58Z
2022-10-07T04:32:07Z,42.805,6.029,13.3054,4.60121,2470.6,2022-10-07T06:34:02Z
2022-10-07T04:35:10Z,42.805,6.029,13.3060,4.60110,2470.637,2022-10-07T06:37:05Z
2022-10-07T04:38:13Z,42.805,6.029,13.3054,4.60119,2470.577,2022-10-07T06:40:08Z
2022-10-07T04:41:16Z,42.805,6.029,13.3041,4.60097,2470.624,2022-10-07T06:43:11Z
2022-10-07T04:44:20Z,42.805,6.029,13.3051,4.60107,2470.646,2022-10-07T06:46:14Z
2022-10-07T04:47:23Z,42.805,6.029,13.3060,4.60098,2470.637,2022-10-07T06:49:17Z
2022-10-07T04:50:26Z,42.805,6.029,13.3060,4.60106,2470.577,2022-10-07T06:52:20Z
2022-10-07T04:53:29Z,42.805,6.029,13.3073,4.60095,2470.637,2022-10-07T06:55:23Z
2022-10-07T04:56:32Z,42.805,6.029,13.3044,4.60108,2470.614,2022-10-07T06:58:26Z
2022-10-07T04:59:35Z,42.805,6.029,13.3051,4.60099,2470.624,2022-10-07T07:01:30Z
2022-10-07T05:02:38Z,42.805,6.029,13.3035,4.60117,2470.6,2022-10-07T07:04:33Z
2022-10-07T05:05:41Z,42.805,6.029,13.3075,4.60102,2470.624,2022-10-07T07:07:36Z
2022-10-07T05:08:45Z,42.805,6.029,13.3048,4.60098,2470.6,2022-10-07T07:10:39Z
2022-10-07T05:11:48Z,42.805,6.029,13.3056,4.60119,2470.591,2022-10-07T07:13:42Z
2022-10-07T05:14:51Z,42.805,6.029,13.3041,4.60111,2470.637,2022-10-07T07:16:45Z
2022-10-07T05:17:54Z,42.805,6.029,13.3036,4.60108,2470.577,2022-10-07T07:19:48Z
2022-10-07T05:20:57Z,42.805,6.029,13.3034,4.60135,2470.624,2022-10-07T07:22:51Z
2022-10-07T05:24:00Z,42.805,6.029,13.3051,4.60081,2470.624,2022-10-07T07:25:55Z
2022-10-07T05:27:03Z,42.805,6.029,13.3062,4.60087,2470.661,2022-10-07T07:28:58Z
2022-10-07T05:30:06Z,42.805,6.029,13.3052,4.60078,2470.624,2022-10-07T07:32:01Z
2022-10-07T05:33:09Z,42.805,6.029,13.3093,4.60092,2470.6,2022-10-07T07:35:04Z
2022-10-07T05:36:13Z,42.805,6.029,13.3049,4.60127,2470.6,2022-10-07T07:38:07Z
2022-10-07T05:39:16Z,42.805,6.029,13.3036,4.60110,2470.624,2022-10-07T07:41:10Z
2022-10-07T05:42:19Z,42.805,6.029,13.3045,4.60135,2470.624,2022-10-07T07:44:13Z
2022-10-07T05:45:22Z,42.805,6.029,13.3061,4.60095,2470.614,2022-10-07T07:47:16Z
2022-10-07T05:48:25Z,42.805,6.029,13.3057,4.60087,2470.637,2022-10-07T07:50:19Z
2022-10-07T05:51:28Z,42.805,6.029,13.3047,4.60087,2470.6,2022-10-07T07:53:23Z
2022-10-07T05:54:31Z,42.805,6.029,13.3069,4.60101,2470.614,2022-10-07T07:56:26Z
2022-10-07T05:57:34Z,42.805,6.029,13.3062,4.60074,2470.661,2022-10-07T07:59:29Z
2022-10-07T06:00:38Z,42.805,6.029,13.3069,4.60102,2470.624,2022-10-07T08:02:32Z
2022-10-07T06:03:41Z,42.805,6.029,13.3060,4.60114,2470.637,2022-10-07T08:05:35Z
2022-10-07T06:06:44Z,42.805,6.029,13.3067,4.60114,2470.6,2022-10-07T08:08:38Z
2022-10-07T06:09:47Z,42.805,6.029,13.3079,4.60157,2470.661,2022-10-07T08:11:41Z
2022-10-07T06:12:50Z,42.805,6.029,13.3101,4.60089,2470.614,2022-10-07T08:14:44Z
2022-10-07T06:15:53Z,42.805,6.029,13.3076,4.60092,2470.624,2022-10-07T08:17:48Z
2022-10-07T06:18:56Z,42.805,6.029,13.3089,4.60094,2470.6,2022-10-07T08:20:51Z
2022-10-07T06:21:59Z,42.805,6.029,13.3096,4.60087,2470.577,2022-10-07T08:23:54Z
2022-10-07T06:25:03Z,42.805,6.029,13.3082,4.60084,2470.6,2022-10-07T08:26:57Z
2022-10-07T06:28:06Z,42.805,6.029,13.3084,4.60122,2470.637,2022-10-07T08:30:00Z
2022-10-07T06:31:09Z,42.805,6.029,13.3087,4.60097,2470.6,2022-10-07T08:33:03Z
2022-10-07T06:34:12Z,42.805,6.029,13.3078,4.60084,2470.6,2022-10-07T08:36:06Z
2022-10-07T06:37:15Z,42.805,6.029,13.3085,4.60081,2470.614,2022-10-07T08:39:09Z
2022-10-07T06:40:18Z,42.805,6.029,13.3087,4.60088,2470.614,2022-10-07T08:42:12Z
2022-10-07T06:43:21Z,42.805,6.029,13.3084,4.60099,2470.577,2022-10-07T08:45:16Z
2022-10-07T06:46:24Z,42.805,6.029,13.3082,4.60096,2470.614,2022-10-07T08:48:19Z
2022-10-07T06:49:27Z,42.805,6.029,13.3061,4.60097,2470.6,2022-10-07T08:51:22Z
2022-10-07T06:52:31Z,42.805,6.029,13.3059,4.60138,2470.637,2022-10-07T08:54:25Z
2022-10-07T06:55:34Z,42.805,6.029,13.3049,4.60119,2470.591,2022-10-07T08:57:28Z
2022-10-07T06:58:37Z,42.805,6.029,13.3058,4.60122,2470.614,2022-10-07T09:00:31Z
2022-10-07T07:01:40Z,42.805,6.029,13.3070,4.60122,2470.591,2022-10-07T09:03:34Z
2022-10-07T07:04:43Z,42.805,6.029,13.3072,4.60135,2470.614,2022-10-07T09:06:37Z
2022-10-07T07:07:46Z,42.805,6.029,13.3084,4.60135,2470.6,2022-10-07T09:09:40Z
2022-10-07T07:10:49Z,42.805,6.029,13.3086,4.60140,2470.614,2022-10-07T09:12:44Z
2022-10-07T07:13:52Z,42.805,6.029,13.3093,4.60133,2470.6,2022-10-07T09:15:47Z
2022-10-07T07:16:55Z,42.805,6.029,13.3096,4.60129,2470.6,2022-10-07T09:18:50Z
2022-10-07T07:19:59Z,42.805,6.029,13.3093,4.60125,2470.614,2022-10-07T09:21:53Z
2022-10-07T07:23:02Z,42.805,6.029,13.3096,4.60125,2470.6,2022-10-07T09:24:56Z
2022-10-07T07:26:05Z,42.805,6.029,13.3094,4.60129,2470.637,2022-10-07T09:27:59Z
2022-10-07T07:29:08Z,42.805,6.029,13.3097,4.60130,2470.553,2022-10-07T09:31:02Z
2022-10-07T07:32:11Z,42.805,6.029,13.3085,4.60119,2470.614,2022-10-07T09:34:05Z
2022-10-07T07:35:14Z,42.805,6.029,13.3072,4.60115,2470.614,2022-10-07T09:37:09Z
2022-10-07T07:38:17Z,42.805,6.029,13.3093,4.60125,2470.591,2022-10-07T09:40:12Z
2022-10-07T07:41:20Z,42.805,6.029,13.3096,4.60117,2470.591,2022-10-07T09:43:15Z
2022-10-07T07:44:24Z,42.805,6.029,13.3082,4.60134,2470.577,2022-10-07T09:46:18Z
2022-10-07T07:47:27Z,42.805,6.029,13.3093,4.60123,2470.577,2022-10-07T09:49:21Z
2022-10-07T07:50:30Z,42.805,6.029,13.3051,4.60138,2470.614,2022-10-07T09:52:24Z
2022-10-07T07:53:33Z,42.805,6.029,13.3029,4.60127,2470.553,2022-10-07T09:55:27Z
2022-10-07T07:56:36Z,42.805,6.029,13.3078,4.60119,2470.614,2022-10-07T09:58:30Z
2022-10-07T07:59:39Z,42.805,6.029,13.3046,4.60106,2470.591,2022-10-07T10:01:33Z
2022-10-07T08:02:42Z,42.805,6.029,13.3062,4.60134,2470.577,2022-10-07T10:04:37Z
2022-10-07T08:05:45Z,42.805,6.029,13.3051,4.60149,2470.6,2022-10-07T10:07:40Z
2022-10-07T08:08:49Z,42.805,6.029,13.3019,4.60115,2470.577,2022-10-07T10:10:43Z
2022-10-07T08:11:52Z,42.805,6.029,13.3031,4.60118,2470.553,2022-10-07T10:13:46Z
2022-10-07T08:14:55Z,42.805,6.029,13.3103,4.60103,2470.591,2022-10-07T10:16:49Z
2022-10-07T08:17:58Z,42.805,6.029,13.3104,4.60102,2470.577,2022-10-07T10:19:52Z
2022-10-07T08:21:01Z,42.805,6.029,13.3038,4.60122,2470.567,2022-10-07T10:22:55Z
2022-10-07T08:24:04Z,42.805,6.029,13.3111,4.60121,2470.591,2022-10-07T10:25:59Z
2022-10-07T08:27:07Z,42.805,6.029,13.3091,4.60128,2470.567,2022-10-07T10:29:02Z
2022-10-07T08:30:10Z,42.805,6.029,13.3086,4.60130,2470.563,2022-10-07T10:32:05Z
2022-10-07T08:33:13Z,42.805,6.029,13.3091,4.60122,2470.577,2022-10-07T10:35:08Z
2022-10-07T08:36:17Z,42.805,6.029,13.3092,4.60125,2470.628,2022-10-07T10:38:11Z
2022-10-07T08:39:20Z,42.805,6.029,13.3046,4.60104,2470.567,2022-10-07T10:41:14Z
2022-10-07T08:42:23Z,42.805,6.029,13.3055,4.60122,2470.553,2022-10-07T10:44:17Z
2022-10-07T08:45:26Z,42.805,6.029,13.3049,4.60080,2470.567,2022-10-07T10:47:20Z
2022-10-07T08:48:29Z,42.805,6.029,13.3049,4.60074,2470.567,2022-10-07T10:50:23Z
2022-10-07T08:51:32Z,42.805,6.029,13.3045,4.60080,2470.591,2022-10-07T10:53:27Z
2022-10-07T08:54:35Z,42.805,6.029,13.3051,4.60095,2470.53,2022-10-07T10:56:30Z
2022-10-07T08:57:39Z,42.805,6.029,13.3050,4.60092,2470.591,2022-10-07T10:59:33Z
2022-10-07T09:00:42Z,42.805,6.029,13.3048,4.60098,2470.553,2022-10-07T11:02:36Z
2022-10-07T09:03:45Z,42.805,6.029,13.3059,4.60092,2470.581,2022-10-07T11:05:39Z
2022-10-07T09:06:48Z,42.805,6.029,13.3066,4.60094,2470.516,2022-10-07T11:08:42Z
2022-10-07T09:09:51Z,42.805,6.029,13.3066,4.60097,2470.53,2022-10-07T11:11:45Z
2022-10-07T09:12:54Z,42.805,6.029,13.3068,4.60104,2470.544,2022-10-07T11:14:48Z
2022-10-07T09:15:57Z,42.805,6.029,13.3071,4.60098,2470.567,2022-10-07T11:17:52Z
2022-10-07T09:19:00Z,42.805,6.029,13.3071,4.60084,2470.52,2022-10-07T11:20:55Z
2022-10-07T09:22:03Z,42.805,6.029,13.3076,4.60101,2470.544,2022-10-07T11:23:58Z
2022-10-07T09:25:07Z,42.805,6.029,13.3045,4.60084,2470.544,2022-10-07T11:27:01Z
2022-10-07T09:28:10Z,42.805,6.029,13.3043,4.60101,2470.544,2022-10-07T11:30:04Z
2022-10-07T09:31:13Z,42.805,6.029,13.3028,4.60116,2470.53,2022-10-07T11:33:07Z
2022-10-07T09:34:16Z,42.805,6.029,13.3027,4.60099,2470.53,2022-10-07T11:36:10Z
2022-10-07T09:37:19Z,42.805,6.029,13.3028,4.60073,2470.567,2022-10-07T11:39:13Z
2022-10-07T09:40:22Z,42.805,6.029,13.3021,4.60065,2470.553,2022-10-07T11:42:17Z
2022-10-07T09:43:25Z,42.805,6.029,13.3017,4.60066,2470.567,2022-10-07T11:45:20Z
2022-10-07T09:46:28Z,42.805,6.029,13.3021,4.60063,2470.507,2022-10-07T11:48:23Z
2022-10-07T09:49:32Z,42.805,6.029,13.3024,4.60061,2470.507,2022-10-07T11:51:26Z
2022-10-07T09:52:35Z,42.805,6.029,13.3021,4.60066,2470.507,2022-10-07T11:54:29Z
2022-10-07T09:55:38Z,42.805,6.029,13.3024,4.60069,2470.53,2022-10-07T11:57:32Z
2022-10-07T09:58:41Z,42.805,6.029,13.3026,4.60092,2470.52,2022-10-07T12:00:35Z
2022-10-07T10:01:44Z,42.805,6.029,13.3018,4.60067,2470.567,2022-10-07T12:03:38Z
2022-10-07T10:04:47Z,42.805,6.029,13.3014,4.60067,2470.52,2022-10-07T12:06:42Z
2022-10-07T10:07:50Z,42.805,6.029,13.3011,4.60067,2470.53,2022-10-07T12:09:45Z
2022-10-07T10:10:53Z,42.805,6.029,13.3014,4.60073,2470.507,2022-10-07T12:12:48Z
2022-10-07T10:13:57Z,42.805,6.029,13.3008,4.60069,2470.507,2022-10-07T12:15:51Z
2022-10-07T10:17:00Z,42.805,6.029,13.3011,4.60068,2470.507,2022-10-07T12:18:54Z
2022-10-07T10:20:03Z,42.805,6.029,13.3011,4.60064,2470.52,2022-10-07T12:21:57Z
2022-10-07T10:23:06Z,42.805,6.029,13.3014,4.60068,2470.483,2022-10-07T12:25:00Z
2022-10-07T10:26:09Z,42.805,6.029,13.3015,4.60068,2470.507,2022-10-07T12:28:03Z
2022-10-07T10:29:12Z,42.805,6.029,13.3011,4.60061,2470.483,2022-10-07T12:31:06Z
2022-10-07T10:32:15Z,42.805,6.029,13.3012,4.60061,2470.483,2022-10-07T12:34:10Z
2022-10-07T10:35:18Z,42.805,6.029,13.3010,4.60062,2470.497,2022-10-07T12:37:13Z
2022-10-07T10:38:21Z,42.805,6.029,13.3011,4.60058,2470.497,2022-10-07T12:40:16Z
2022-10-07T10:41:25Z,42.805,6.029,13.3014,4.60062,2470.474,2022-10-07T12:43:19Z
2022-10-07T10:44:28Z,42.805,6.029,13.3011,4.60061,2470.483,2022-10-07T12:46:22Z
2022-10-07T10:47:31Z,42.805,6.029,13.3030,4.60141,2470.507,2022-10-07T12:49:25Z
2022-10-07T10:50:34Z,42.805,6.029,13.3014,4.60075,2470.46,2022-10-07T12:52:28Z
2022-10-07T10:53:37Z,42.805,6.029,13.3010,4.60070,2470.47,2022-10-07T12:55:31Z
2022-10-07T10:56:40Z,42.805,6.029,13.3007,4.60072,2470.483,2022-10-07T12:58:35Z
2022-10-07T10:59:43Z,42.805,6.029,13.3014,4.60074,2470.53,2022-10-07T13:01:38Z
2022-10-07T11:02:46Z,42.805,6.029,13.3011,4.60082,2470.497,2022-10-07T13:04:41Z
2022-10-07T11:05:50Z,42.805,6.029,13.3008,4.60084,2470.52,2022-10-07T13:07:44Z
2022-10-07T11:08:53Z,42.805,6.029,13.3010,4.60063,2470.483,2022-10-07T13:10:47Z
2022-10-07T11:11:56Z,42.805,6.029,13.3005,4.60060,2470.483,2022-10-07T13:13:50Z
2022-10-07T11:14:59Z,42.805,6.029,13.3009,4.60060,2470.483,2022-10-07T13:16:53Z
2022-10-07T11:18:02Z,42.805,6.029,13.3009,4.60078,2470.497,2022-10-07T13:19:56Z
2022-10-07T11:21:05Z,42.805,6.029,13.3008,4.60062,2470.483,2022-10-07T13:23:00Z
2022-10-07T11:24:08Z,42.805,6.029,13.3008,4.60058,2470.507,2022-10-07T13:26:03Z
2022-10-07T11:27:11Z,42.805,6.029,13.3008,4.60057,2470.483,2022-10-07T13:29:06Z
2022-10-07T11:30:15Z,42.805,6.029,13.3011,4.60057,2470.46,2022-10-07T13:32:09Z
2022-10-07T11:33:18Z,42.805,6.029,13.3006,4.60057,2470.544,2022-10-07T13:35:12Z
2022-10-07T11:36:21Z,42.805,6.029,13.3011,4.60122,2470.507,2022-10-07T13:38:15Z
2022-10-07T11:39:24Z,42.805,6.029,13.3008,4.60078,2470.483,2022-10-07T13:41:18Z
2022-10-07T11:42:27Z,42.805,6.029,13.3012,4.60073,2470.497,2022-10-07T13:44:21Z
2022-10-07T11:45:30Z,42.805,6.029,13.3010,4.60069,2470.483,2022-10-07T13:47:25Z
2022-10-07T11:48:33Z,42.805,6.029,13.3010,4.60076,2470.483,2022-10-07T13:50:28Z
2022-10-07T11:51:36Z,42.805,6.029,13.3008,4.60066,2470.497,2022-10-07T13:53:31Z
2022-10-07T11:54:39Z,42.805,6.029,13.3007,4.60061,2470.52,2022-10-07T13:56:34Z
2022-10-07T11:57:43Z,42.805,6.029,13.3010,4.60062,2470.497,2022-10-07T13:59:37Z
2022-10-07T12:00:46Z,42.805,6.029,13.3011,4.60067,2470.497,2022-10-07T14:02:40Z
2022-10-07T12:03:49Z,42.805,6.029,13.3011,4.60079,2470.483,2022-10-07T14:05:43Z
2022-10-07T12:06:52Z,42.805,6.029,13.3009,4.60070,2470.47,2022-10-07T14:08:46Z
2022-10-07T12:09:55Z,42.805,6.029,13.3011,4.60067,2470.483,2022-10-07T14:11:49Z
2022-10-07T12:12:58Z,42.805,6.029,13.3011,4.60063,2470.497,2022-10-07T14:14:53Z
2022-10-07T12:16:01Z,42.805,6.029,13.3008,4.60062,2470.46,2022-10-07T14:17:56Z
2022-10-07T12:19:04Z,42.805,6.029,13.3009,4.60069,2470.507,2022-10-07T14:20:59Z
2022-10-07T12:22:08Z,42.805,6.029,13.3005,4.60066,2470.507,2022-10-07T14:24:02Z
2022-10-07T12:25:11Z,42.805,6.029,13.3009,4.60070,2470.483,2022-10-07T14:27:05Z
2022-10-07T12:28:14Z,42.805,6.029,13.3007,4.60074,2470.53,2022-10-07T14:30:08Z
2022-10-07T12:31:17Z,42.805,6.029,13.3008,4.60069,2470.497,2022-10-07T14:33:11Z
2022-10-07T12:34:20Z,42.805,6.029,13.3008,4.60063,2470.507,2022-10-07T14:36:14Z
2022-10-07T12:37:23Z,42.805,6.029,13.3008,4.60071,2470.507,2022-10-07T14:39:18Z
2022-10-07T12:40:26Z,42.805,6.029,13.3010,4.60062,2470.507,2022-10-07T14:42:21Z
2022-10-07T12:43:29Z,42.805,6.029,13.3008,4.60071,2470.507,2022-10-07T14:45:24Z
2022-10-07T12:46:33Z,42.805,6.029,13.3007,4.60070,2470.483,2022-10-07T14:48:27Z
2022-10-07T12:49:36Z,42.805,6.029,13.3006,4.60077,2470.483,2022-10-07T14:51:30Z
2022-10-07T12:52:39Z,42.805,6.029,13.3009,4.60081,2470.497,2022-10-07T14:54:33Z
2022-10-07T12:55:42Z,42.805,6.029,13.3016,4.60068,2470.52,2022-10-07T14:57:36Z
2022-10-07T12:58:45Z,42.805,6.029,13.3039,4.60072,2470.46,2022-10-07T15:00:39Z
2022-10-07T13:01:48Z,42.805,6.029,13.3022,4.60064,2470.544,2022-10-07T15:03:43Z
2022-10-07T13:04:51Z,42.805,6.029,13.3046,4.60078,2470.544,2022-10-07T15:06:46Z
2022-10-07T13:07:54Z,42.805,6.029,13.3048,4.60067,2470.483,2022-10-07T15:09:49Z
2022-10-07T13:10:57Z,42.805,6.029,13.3029,4.60098,2470.53,2022-10-07T15:12:52Z
2022-10-07T13:14:01Z,42.805,6.029,13.3054,4.60066,2470.52,2022-10-07T15:15:55Z
2022-10-07T13:17:04Z,42.805,6.029,13.3043,4.60077,2470.544,2022-10-07T15:18:58Z
2022-10-07T13:20:07Z,42.805,6.029,13.3036,4.60066,2470.507,2022-10-07T15:22:01Z
2022-10-07T13:23:10Z,42.805,6.029,13.3026,4.60062,2470.53,2022-10-07T15:25:04Z
2022-10-07T13:26:13Z,42.805,6.029,13.3018,4.60076,2470.507,2022-10-07T15:28:07Z
2022-10-07T13:29:16Z,42.805,6.029,13.3061,4.60086,2470.52,2022-10-07T15:31:11Z
2022-10-07T13:32:19Z,42.805,6.029,13.3044,4.60072,2470.567,2022-10-07T15:34:14Z
2022-10-07T13:35:22Z,42.805,6.029,13.3043,4.60068,2470.567,2022-10-07T15:37:17Z
2022-10-07T13:38:26Z,42.805,6.029,13.3040,4.60064,2470.53,2022-10-07T15:40:20Z
2022-10-07T13:41:29Z,42.805,6.029,13.3046,4.60067,2470.53,2022-10-07T15:43:23Z
2022-10-07T13:44:32Z,42.805,6.029,13.3053,4.60067,2470.53,2022-10-07T15:46:26Z
2022-10-07T13:47:35Z,42.805,6.029,13.3053,4.60071,2470.53,2022-10-07T15:49:29Z
2022-10-07T13:50:38Z,42.805,6.029,13.3058,4.60067,2470.507,2022-10-07T15:52:32Z
2022-10-07T13:53:41Z,42.805,6.029,13.3059,4.60065,2470.553,2022-10-07T15:55:36Z
2022-10-07T13:56:44Z,42.805,6.029,13.3057,4.60072,2470.567,2022-10-07T15:58:39Z
2022-10-07T13:59:47Z,42.805,6.029,13.3062,4.60067,2470.544,2022-10-07T16:01:42Z
2022-10-07T14:02:50Z,42.805,6.029,13.3061,4.60075,2470.591,2022-10-07T16:04:45Z
2022-10-07T14:05:54Z,42.805,6.029,13.3056,4.60066,2470.553,2022-10-07T16:07:48Z
2022-10-07T14:08:57Z,42.805,6.029,13.3058,4.60067,2470.591,2022-10-07T16:10:51Z
2022-10-07T14:12:00Z,42.805,6.029,13.3061,4.60067,2470.567,2022-10-07T16:13:54Z
2022-10-07T14:15:03Z,42.805,6.029,13.3058,4.60073,2470.53,2022-10-07T16:16:57Z
2022-10-07T14:18:06Z,42.805,6.029,13.3054,4.60080,2470.544,2022-10-07T16:20:01Z
2022-10-07T14:21:09Z,42.805,6.029,13.3060,4.60105,2470.567,2022-10-07T16:23:04Z
2022-10-07T14:24:12Z,42.805,6.029,13.3054,4.60128,2470.577,2022-10-07T16:26:07Z
2022-10-07T14:27:15Z,42.805,6.029,13.3072,4.60102,2470.577,2022-10-07T16:29:10Z
2022-10-07T14:30:19Z,42.805,6.029,13.3047,4.60081,2470.577,2022-10-07T16:32:13Z
2022-10-07T14:33:22Z,42.805,6.029,13.3057,4.60088,2470.577,2022-10-07T16:35:16Z
2022-10-07T14:36:25Z,42.805,6.029,13.3076,4.60094,2470.6,2022-10-07T16:38:19Z
2022-10-07T14:39:28Z,42.805,6.029,13.3061,4.60144,2470.577,2022-10-07T16:41:22Z
2022-10-07T14:42:31Z,42.805,6.029,13.3069,4.60133,2470.577,2022-10-07T16:44:25Z
2022-10-07T14:45:34Z,42.805,6.029,13.3048,4.60133,2470.577,2022-10-07T16:47:29Z
2022-10-07T14:48:37Z,42.805,6.029,13.3060,4.60147,2470.624,2022-10-07T16:50:32Z
2022-10-07T14:51:40Z,42.805,6.029,13.3067,4.60110,2470.614,2022-10-07T16:53:35Z
2022-10-07T14:54:44Z,42.805,6.029,13.3046,4.60147,2470.614,2022-10-07T16:56:38Z
2022-10-07T14:57:47Z,42.805,6.029,13.3045,4.60132,2470.6,2022-10-07T16:59:41Z
2022-10-07T15:00:50Z,42.805,6.029,13.3074,4.60152,2470.614,2022-10-07T17:02:44Z